GW4807 Weather Reports


Display with metric or nautical units.
time (UTC)temp
F
wind
direction
speed
MPH
gust
MPH
rain 1hr
in
rain 24hr
in
rain mn
in
humidity
%
barometer
mb
20260831050937 71 128 0.0 0.0 0.00 0.00 0.00 82 1010.8
20260831050437 71 130 0.0 0.0 0.00 0.00 0.00 82 1010.9
20260831045936 71 128 0.0 0.0 0.00 0.00 0.00 82 1010.8
20260831045435 71 131 0.0 0.0 0.00 0.00 0.00 81 1010.8
20260831044930 71 138 1.0 1.0 0.00 0.00 0.00 81 1010.8
20260831044426 72 129 1.0 1.0 0.00 0.00 0.00 81 1010.8
20260831043921 72 126 0.0 0.0 0.00 0.00 0.00 80 1010.7
20260831043421 72 124 0.0 0.0 0.00 0.00 0.00 80 1010.6
20260831042916 72 132 0.0 0.0 0.00 0.00 0.00 79 1010.4
20260831042415 73 127 0.0 0.0 0.00 0.00 0.00 78 1010.7
20260831041905 73 140 0.0 1.0 0.00 0.00 0.00 78 1010.6
20260831041404 73 125 0.0 0.0 0.00 0.00 0.00 78 1010.6
20260831040859 73 125 0.0 0.0 0.00 0.00 0.00 78 1010.6
20260831040354 73 102 1.0 1.0 0.00 0.00 0.00 77 1010.6
20260831035852 74 138 1.0 1.0 0.00 0.00 0.00 77 1010.4
20260831035351 74 135 1.0 1.0 0.00 0.00 0.00 76 1010.6
20260831034846 74 133 0.0 0.0 0.00 0.00 0.00 75 1010.4
20260831034341 74 131 0.0 1.0 0.00 0.00 0.00 75 1010.3
20260831033837 75 128 0.0 0.0 0.00 0.00 0.00 74 1010.6
20260831033336 75 122 0.0 0.0 0.00 0.00 0.00 73 1010.4
20260831032832 75 136 0.0 0.0 0.00 0.00 0.00 73 1010.3
20260831032326 75 130 0.0 0.0 0.00 0.00 0.00 72 1010.3
20260831031822 76 130 0.0 0.0 0.00 0.00 0.00 72 1010.0
20260831031321 76 137 0.0 1.0 0.00 0.00 0.00 71 1010.3
20260831030816 76 136 0.0 1.0 0.00 0.00 0.00 70 1010.1
20260831030313 76 132 0.0 0.0 0.00 0.00 0.00 70 1010.2
20260831025808 76 138 0.0 1.0 0.00 0.00 0.00 70 1010.2
20260831025306 76 132 0.0 0.0 0.00 0.00 0.00 70 1010.0
20260831024758 76 155 1.0 2.0 0.00 0.00 0.00 70 1010.3
20260831024257 76 150 0.0 1.0 0.00 0.00 0.00 71 1010.3
20260831023756 76 133 1.0 1.0 0.00 0.00 0.00 70 1010.1
20260831023255 77 130 0.0 0.0 0.00 0.00 0.00 70 1010.1
20260831022750 77 127 0.0 0.0 0.00 0.00 0.00 69 1009.7
20260831022249 78 139 1.0 1.0 0.00 0.00 0.00 68 1009.9
20260831021744 78 138 0.0 1.0 0.00 0.00 0.00 67 1010.0
20260831021244 78 133 0.0 1.0 0.00 0.00 0.00 67 1009.7
20260831020741 79 153 1.0 2.0 0.00 0.00 0.00 65 1009.9
20260831020239 80 141 1.0 1.0 0.00 0.00 0.00 64 1010.0
20260831015735 80 113 1.0 1.0 0.00 0.00 0.00 63 1009.6
20260831015231 80 132 0.0 0.0 0.00 0.00 0.00 63 1009.7
20260831014725 78 85 1.0 1.0 0.00 0.00 0.00 66 1009.5
20260831014225 79 130 0.0 0.0 0.00 0.00 0.00 66 1009.6
20260831013722 78 154 1.0 1.0 0.00 0.00 0.00 67 1009.6
20260831013221 78 107 1.0 1.0 0.00 0.00 0.00 67 1009.3
20260831012716 78 136 0.0 1.0 0.00 0.00 0.00 67 1009.3
20260831012212 79 127 0.0 0.0 0.00 0.00 0.00 67 1009.4
20260831011710 79 133 0.0 0.0 0.00 0.00 0.00 66 1009.2
20260831011206 79 134 0.0 1.0 0.00 0.00 0.00 66 1009.1
20260831010702 80 133 0.0 0.0 0.00 0.00 0.00 65 1009.3
20260831010157 80 130 0.0 0.0 0.00 0.00 0.00 64 1009.1
20260831005652 81 135 0.0 0.0 0.00 0.00 0.00 63 1009.2
20260831005147 81 129 0.0 0.0 0.00 0.00 0.00 63 1009.1
20260831004643 82 127 0.0 0.0 0.00 0.00 0.00 62 1009.2
20260831004138 82 136 0.0 1.0 0.00 0.00 0.00 61 1009.3
20260831003634 83 135 0.0 0.0 0.00 0.00 0.00 60 1009.1
20260831003130 84 133 0.0 0.0 0.00 0.00 0.00 58 1009.3
20260831002628 84 133 0.0 0.0 0.00 0.00 0.00 58 1009.4
20260831002124 85 135 0.0 1.0 0.00 0.00 0.00 56 1009.4
20260831001619 86 136 0.0 1.0 0.00 0.00 0.00 54 1009.2
20260831001115 87 132 0.0 0.0 0.00 0.00 0.00 53 1009.2
20260831000612 89 130 0.0 0.0 0.00 0.00 0.00 51 1009.2
20260831000111 90 134 1.0 1.0 0.00 0.00 0.00 47 1009.2
20260830235610 91 133 0.0 0.0 0.00 0.00 0.00 46 1009.0
20260830235105 92 130 0.0 0.0 0.00 0.00 0.00 44 1009.4
20260830234600 92 145 1.0 1.0 0.00 0.00 0.00 43 1009.3
20260830234055 93 127 0.0 0.0 0.00 0.00 0.00 41 1009.2
20260830233550 94 183 1.0 2.0 0.00 0.00 0.00 41 1009.3
20260830233046 94 336 2.0 3.0 0.00 0.00 0.00 40 1009.3
20260830232542 95 128 0.0 1.0 0.00 0.00 0.00 39 1009.2
20260830232038 96 155 1.0 1.0 0.00 0.00 0.00 38 1009.2
20260830231533 97 116 1.0 1.0 0.00 0.00 0.00 37 1009.3
20260830231032 98 140 0.0 1.0 0.00 0.00 0.00 36 1009.3
20260830230528 98 183 1.0 1.0 0.00 0.00 0.00 36 1009.1
20260830230023 98 110 1.0 1.0 0.00 0.00 0.00 36 1009.2
20260830225518 98 203 1.0 1.0 0.00 0.00 0.00 36 1009.2
20260830225017 98 64 2.0 2.0 0.00 0.00 0.00 35 1009.4
20260830224516 99 133 1.0 1.0 0.00 0.00 0.00 35 1009.1
20260830224013 99 103 1.0 1.0 0.00 0.00 0.00 35 1009.3
20260830223509 99 124 1.0 1.0 0.00 0.00 0.00 36 1009.2
20260830223004 100 167 2.0 2.0 0.00 0.00 0.00 35 1009.1
20260830222458 100 301 2.0 3.0 0.00 0.00 0.00 34 1009.2
20260830221954 100 75 1.0 2.0 0.00 0.00 0.00 34 1009.1
20260830221450 100 291 4.0 6.0 0.00 0.00 0.00 34 1009.2
20260830220945 98 133 1.0 1.0 0.00 0.00 0.00 35 1009.2
20260830220440 97 68 2.0 2.0 0.00 0.00 0.00 35 1009.5
20260830215937 96 59 1.0 2.0 0.00 0.00 0.00 37 1009.3
20260830215432 99 355 3.0 3.0 0.00 0.00 0.00 34 1009.2
20260830214927 102 116 1.0 2.0 0.00 0.00 0.00 33 1009.3
20260830214422 101 162 2.0 2.0 0.00 0.00 0.00 32 1009.4
20260830213916 100 123 1.0 2.0 0.00 0.00 0.00 33 1009.5
20260830213412 101 20 2.0 3.0 0.00 0.00 0.00 33 1009.3
20260830212907 101 99 2.0 3.0 0.00 0.00 0.00 33 1009.4
20260830212403 100 43 2.0 3.0 0.00 0.00 0.00 35 1009.2
20260830211902 100 150 1.0 2.0 0.00 0.00 0.00 36 1009.5
20260830211356 102 217 5.0 7.0 0.00 0.00 0.00 34 1009.5
20260830210852 102 166 1.0 2.0 0.00 0.00 0.00 33 1009.7
20260830210351 101 219 4.0 7.0 0.00 0.00 0.00 33 1009.7
20260830205849 101 91 2.0 2.0 0.00 0.00 0.00 33 1009.6
20260830205349 100 243 2.0 2.0 0.00 0.00 0.00 35 1009.7
20260830204844 100 227 3.0 3.0 0.00 0.00 0.00 34 1009.8
20260830204343 99 144 3.0 5.0 0.00 0.00 0.00 35 1009.6
20260830203838 98 107 1.0 1.0 0.00 0.00 0.00 35 1009.7
20260830203335 100 128 2.0 2.0 0.00 0.00 0.00 35 1009.9
20260830202834 100 97 1.0 1.0 0.00 0.00 0.00 35 1009.7
20260830202330 99 301 3.0 5.0 0.00 0.00 0.00 35 1009.9
20260830201825 99 185 3.0 3.0 0.00 0.00 0.00 36 1009.7
20260830201319 100 205 3.0 3.0 0.00 0.00 0.00 35 1010.2
20260830200814 100 170 2.0 3.0 0.00 0.00 0.00 35 1009.9
20260830200314 101 161 1.0 1.0 0.00 0.00 0.00 35 1010.2
20260830195809 100 190 1.0 2.0 0.00 0.00 0.00 35 1010.0
20260830195309 100 155 3.0 5.0 0.00 0.00 0.00 36 1010.1
20260830194807 99 139 0.0 1.0 0.00 0.00 0.00 38 1009.9
20260830194306 98 240 3.0 3.0 0.00 0.00 0.00 39 1010.2
20260830193801 98 75 2.0 2.0 0.00 0.00 0.00 37 1010.1
20260830193256 98 93 2.0 2.0 0.00 0.00 0.00 38 1010.4
20260830192752 98 136 2.0 2.0 0.00 0.00 0.00 38 1010.3
20260830192251 99 190 2.0 2.0 0.00 0.00 0.00 37 1010.2
20260830191747 99 123 3.0 3.0 0.00 0.00 0.00 36 1010.4
20260830191247 97 223 4.0 5.0 0.00 0.00 0.00 38 1010.6
20260830190743 96 136 0.0 0.0 0.00 0.00 0.00 38 1010.4
20260830190243 97 201 3.0 3.0 0.00 0.00 0.00 38 1010.4
20260830185741 97 320 5.0 6.0 0.00 0.00 0.00 38 1010.4
20260830185237 97 206 3.0 3.0 0.00 0.00 0.00 38 1010.6
20260830184737 96 175 5.0 6.0 0.00 0.00 0.00 38 1010.7
20260830184236 97 294 3.0 5.0 0.00 0.00 0.00 38 1010.6
20260830183732 96 190 6.0 8.0 0.00 0.00 0.00 39 1011.0
20260830183232 96 51 2.0 3.0 0.00 0.00 0.00 39 1010.6
20260830182732 97 158 2.0 2.0 0.00 0.00 0.00 38 1010.8
20260830182229 96 61 2.0 2.0 0.00 0.00 0.00 38 1011.0
20260830181725 96 51 1.0 2.0 0.00 0.00 0.00 39 1011.1
20260830181220 94 135 1.0 2.0 0.00 0.00 0.00 40 1011.2
20260830180719 94 142 1.0 1.0 0.00 0.00 0.00 41 1011.2
20260830180214 93 77 3.0 3.0 0.00 0.00 0.00 41 1011.4
20260830175713 93 194 5.0 6.0 0.00 0.00 0.00 42 1011.2
20260830175208 92 136 3.0 5.0 0.00 0.00 0.00 42 1011.5
20260830174704 92 198 4.0 6.0 0.00 0.00 0.00 43 1011.7
20260830174200 91 158 3.0 3.0 0.00 0.00 0.00 44 1011.5
20260830173659 91 183 6.0 7.0 0.00 0.00 0.00 43 1011.8
20260830173154 91 138 0.0 1.0 0.00 0.00 0.00 44 1011.8
20260830172651 91 182 5.0 6.0 0.00 0.00 0.00 45 1011.8
20260830172148 91 174 5.0 6.0 0.00 0.00 0.00 46 1011.4
20260830171647 91 110 3.0 5.0 0.00 0.00 0.00 45 1011.7
20260830171142 90 11 3.0 5.0 0.00 0.00 0.00 47 1012.0
20260830170637 90 187 3.0 3.0 0.00 0.00 0.00 47 1011.8
20260830170136 89 172 1.0 2.0 0.00 0.00 0.00 49 1011.9
20260830165631 89 138 1.0 1.0 0.00 0.00 0.00 50 1012.0
20260830165127 88 95 2.0 2.0 0.00 0.00 0.00 49 1012.1
20260830164623 88 96 2.0 3.0 0.00 0.00 0.00 51 1012.0
20260830164119 88 183 6.0 11.0 0.00 0.00 0.00 51 1012.4
20260830163616 87 161 0.0 1.0 0.00 0.00 0.00 52 1012.0
20260830163115 87 199 4.0 6.0 0.00 0.00 0.00 53 1012.2
20260830162610 87 211 2.0 3.0 0.00 0.00 0.00 52 1012.2
20260830162106 87 152 4.0 6.0 0.00 0.00 0.00 53 1012.1
20260830161606 86 75 1.0 2.0 0.00 0.00 0.00 54 1012.0
20260830161101 86 145 2.0 2.0 0.00 0.00 0.00 55 1012.2
20260830160557 85 148 1.0 1.0 0.00 0.00 0.00 55 1012.2
20260830160052 85 1 3.0 5.0 0.00 0.00 0.00 56 1012.3
20260830155548 84 179 1.0 1.0 0.00 0.00 0.00 56 1012.2
20260830155044 84 223 2.0 3.0 0.00 0.00 0.00 56 1012.3
20260830154538 84 129 3.0 3.0 0.00 0.00 0.00 56 1012.5
20260830154035 84 178 2.0 2.0 0.00 0.00 0.00 55 1012.1
20260830153531 84 156 1.0 1.0 0.00 0.00 0.00 55 1012.0
20260830153031 84 113 0.0 0.0 0.00 0.00 0.00 55 1012.2
20260830152525 84 100 1.0 2.0 0.00 0.00 0.00 56 1012.3
20260830152025 83 149 2.0 2.0 0.00 0.00 0.00 56 1012.0
20260830151524 82 136 2.0 2.0 0.00 0.00 0.00 56 1011.9
20260830151019 82 164 2.0 2.0 0.00 0.00 0.00 57 1012.3
20260830150519 82 206 2.0 2.0 0.00 0.00 0.00 56 1012.0
20260830150014 82 189 2.0 3.0 0.00 0.00 0.00 56 1012.2
20260830145513 81 189 2.0 3.0 0.00 0.00 0.00 57 1011.9
20260830145009 81 196 4.0 5.0 0.00 0.00 0.00 57 1012.0
20260830144505 81 86 3.0 3.0 0.00 0.00 0.00 57 1012.1
20260830144000 80 156 2.0 2.0 0.00 0.00 0.00 59 1012.0
20260830143455 80 133 2.0 2.0 0.00 0.00 0.00 58 1011.8
20260830142953 80 270 2.0 3.0 0.00 0.00 0.00 59 1011.9
20260830142449 80 184 1.0 1.0 0.00 0.00 0.00 60 1012.1
20260830141944 79 138 2.0 2.0 0.00 0.00 0.00 60 1012.0
20260830141439 79 176 2.0 2.0 0.00 0.00 0.00 61 1011.9
20260830140934 78 234 3.0 5.0 0.00 0.00 0.00 61 1012.0
20260830140429 78 148 1.0 2.0 0.00 0.00 0.00 63 1011.9
20260830135928 77 119 0.0 1.0 0.00 0.00 0.00 64 1012.0
20260830135424 76 87 3.0 3.0 0.00 0.00 0.00 66 1012.1
20260830134920 76 90 1.0 1.0 0.00 0.00 0.00 67 1012.1
20260830134415 75 124 0.0 0.0 0.00 0.00 0.00 68 1012.3
20260830133910 75 137 1.0 1.0 0.00 0.00 0.00 69 1011.9
20260830133406 75 87 2.0 2.0 0.00 0.00 0.00 69 1012.2
20260830132901 75 130 0.0 1.0 0.00 0.00 0.00 70 1012.1
20260830132357 74 130 0.0 0.0 0.00 0.00 0.00 70 1012.2
20260830131856 73 126 0.0 0.0 0.00 0.00 0.00 74 1012.1
20260830131356 73 121 1.0 1.0 0.00 0.00 0.00 77 1012.1
20260830130851 72 121 0.0 0.0 0.00 0.00 0.00 83 1012.3
20260830130347 71 120 0.0 0.0 0.00 0.00 0.00 83 1012.0
20260830125845 69 121 0.0 0.0 0.00 0.00 0.00 86 1012.1
20260830125341 68 113 0.0 0.0 0.00 0.00 0.00 87 1012.0
20260830124838 66 121 0.0 0.0 0.00 0.00 0.00 92 1012.1
20260830124333 64 113 1.0 1.0 0.00 0.00 0.00 95 1012.0
20260830123830 62 118 0.0 0.0 0.00 0.00 0.00 99 1012.0
20260830123327 61 124 0.0 0.0 0.00 0.00 0.00 99 1012.1
20260830122824 61 124 0.0 0.0 0.00 0.00 0.00 99 1012.2
20260830122319 61 124 0.0 0.0 0.00 0.00 0.00 99 1012.1
20260830121814 60 121 0.0 0.0 0.00 0.00 0.00 99 1012.0
20260830121313 60 122 0.0 0.0 0.00 0.00 0.00 99 1012.0
20260830120808 60 122 0.0 0.0 0.00 0.00 0.00 99 1012.3
20260830120304 60 122 0.0 0.0 0.00 0.00 0.00 99 1012.2
20260830115800 60 123 0.0 0.0 0.00 0.00 0.00 99 1012.1
20260830115256 60 122 0.0 0.0 0.00 0.00 0.00 98 1011.9
20260830114752 60 122 0.0 0.0 0.00 0.00 0.00 98 1012.1
20260830114248 60 122 0.0 0.0 0.00 0.00 0.00 98 1012.1
20260830113743 60 122 0.0 0.0 0.00 0.00 0.00 98 1012.0
20260830113237 60 123 0.0 0.0 0.00 0.00 0.00 98 1011.9
20260830112733 60 122 0.0 0.0 0.00 0.00 0.00 98 1011.8
20260830112229 60 122 0.0 0.0 0.00 0.00 0.00 98 1012.0
20260830111725 60 122 0.0 0.0 0.00 0.00 0.00 98 1011.9
20260830111220 60 123 0.0 0.0 0.00 0.00 0.00 97 1011.7
20260830110720 60 119 0.0 0.0 0.00 0.00 0.00 97 1011.9
20260830110217 60 124 0.0 0.0 0.00 0.00 0.00 97 1011.9
20260830105715 61 124 0.0 0.0 0.00 0.00 0.00 97 1011.8
20260830105212 61 126 0.0 0.0 0.00 0.00 0.00 97 1011.8
20260830104708 61 124 0.0 0.0 0.00 0.00 0.00 97 1011.7
20260830104205 61 124 0.0 0.0 0.00 0.00 0.00 97 1011.7
20260830103703 61 123 0.0 0.0 0.00 0.00 0.00 96 1011.9
20260830103159 61 122 0.0 0.0 0.00 0.00 0.00 96 1011.9
20260830102657 61 124 0.0 0.0 0.00 0.00 0.00 96 1011.8
20260830102154 61 124 0.0 0.0 0.00 0.00 0.00 96 1011.7
20260830101650 61 124 0.0 0.0 0.00 0.00 0.00 97 1011.7
20260830101145 61 126 0.0 0.0 0.00 0.00 0.00 97 1011.5
20260830100644 61 125 0.0 0.0 0.00 0.00 0.00 97 1011.7
20260830100138 61 126 0.0 0.0 0.00 0.00 0.00 97 1011.7
20260830095637 61 130 0.0 0.0 0.00 0.00 0.00 97 1011.8
20260830095134 61 124 0.0 0.0 0.00 0.00 0.00 96 1011.5
20260830094630 61 123 0.0 0.0 0.00 0.00 0.00 96 1011.9
20260830094125 61 123 0.0 0.0 0.00 0.00 0.00 95 1011.7
20260830093620 61 123 0.0 0.0 0.00 0.00 0.00 95 1011.8
20260830093117 61 122 0.0 0.0 0.00 0.00 0.00 95 1011.8
20260830092611 61 124 0.0 0.0 0.00 0.00 0.00 95 1011.8
20260830092109 61 125 0.0 0.0 0.00 0.00 0.00 95 1011.8
20260830091603 61 123 0.0 0.0 0.00 0.00 0.00 94 1011.7
20260830091102 61 122 0.0 0.0 0.00 0.00 0.00 94 1011.9
20260830090557 61 122 0.0 0.0 0.00 0.00 0.00 94 1011.7
20260830090052 62 122 0.0 0.0 0.00 0.00 0.00 93 1012.0
20260830085547 62 122 0.0 0.0 0.00 0.00 0.00 93 1011.8
20260830085043 62 126 0.0 0.0 0.00 0.00 0.00 93 1011.8
20260830084538 62 126 0.0 0.0 0.00 0.00 0.00 93 1011.5
20260830084038 62 126 0.0 0.0 0.00 0.00 0.00 93 1011.5
20260830083534 62 126 0.0 0.0 0.00 0.00 0.00 92 1011.4
20260830083033 62 126 0.0 0.0 0.00 0.00 0.00 92 1011.7
20260830082528 62 126 0.0 0.0 0.00 0.00 0.00 92 1011.7
20260830082024 62 125 0.0 0.0 0.00 0.00 0.00 90 1011.3
20260830081519 62 122 0.0 0.0 0.00 0.00 0.00 90 1011.5
20260830081018 62 121 0.0 0.0 0.00 0.00 0.00 90 1011.2
20260830080514 62 123 0.0 0.0 0.00 0.00 0.00 90 1011.3
20260830080009 63 124 0.0 0.0 0.00 0.00 0.00 89 1011.2
20260830075504 63 125 0.0 0.0 0.00 0.00 0.00 89 1011.3
20260830074959 63 125 0.0 0.0 0.00 0.00 0.00 89 1011.4
20260830074454 63 125 0.0 0.0 0.00 0.00 0.00 89 1011.5
20260830073950 63 122 0.0 0.0 0.00 0.00 0.00 88 1011.4
20260830073446 63 122 0.0 0.0 0.00 0.00 0.00 88 1011.4
20260830072941 63 121 0.0 0.0 0.00 0.00 0.00 87 1011.4
20260830072437 63 121 0.0 0.0 0.00 0.00 0.00 86 1011.5
20260830071936 64 121 0.0 0.0 0.00 0.00 0.00 85 1011.5
20260830071432 64 121 0.0 0.0 0.00 0.00 0.00 85 1011.3
20260830070930 64 121 0.0 0.0 0.00 0.00 0.00 84 1011.9
20260830070425 65 121 0.0 0.0 0.00 0.00 0.00 83 1011.7
20260830065924 65 121 0.0 0.0 0.00 0.00 0.00 83 1011.5
20260830065423 65 121 0.0 0.0 0.00 0.00 0.00 82 1011.5
20260830064921 66 121 0.0 0.0 0.00 0.00 0.00 82 1011.8
20260830064418 66 124 0.0 0.0 0.00 0.00 0.00 81 1011.5
20260830063917 66 126 0.0 0.0 0.00 0.00 0.00 81 1011.8
20260830063417 66 129 0.0 0.0 0.00 0.00 0.00 81 1011.7
20260830062916 66 129 0.0 0.0 0.00 0.00 0.00 81 1011.7
20260830062416 66 134 0.0 0.0 0.00 0.00 0.00 81 1011.8
20260830061911 66 129 0.0 0.0 0.00 0.00 0.00 81 1011.4
20260830061406 66 135 0.0 0.0 0.00 0.00 0.00 81 1011.7
20260830060903 66 131 0.0 0.0 0.00 0.00 0.00 81 1011.8
20260830060359 66 132 0.0 1.0 0.00 0.00 0.00 80 1011.8
20260830055859 66 132 0.0 0.0 0.00 0.00 0.00 80 1011.8
20260830055355 66 133 0.0 0.0 0.00 0.00 0.00 80 1011.4
20260830054850 67 130 0.0 0.0 0.00 0.00 0.00 79 1011.8
20260830054346 67 127 0.0 0.0 0.00 0.00 0.00 78 1011.7
20260830053841 67 132 0.0 0.0 0.00 0.00 0.00 78 1011.7
20260830053336 67 129 0.0 0.0 0.00 0.00 0.00 78 1011.8
20260830052835 68 129 0.0 0.0 0.00 0.00 0.00 77 1011.7
20260830052331 68 130 0.0 0.0 0.00 0.00 0.00 76 1011.7
20260830051827 68 138 1.0 1.0 0.00 0.00 0.00 76 1011.9
20260830051322 68 131 1.0 1.0 0.00 0.00 0.00 75 1011.5